H1 CPF 2 NER 2024 5 2 9 123 01 glonass144 H2 2207501 9144 52984 2024 5 2 0 0 0 2024 5 5 23 45 0 900 1 1 0 0 0 1 H9 10 0 60432 0.00000 0 -16196796.661 13934273.139 13945021.335 10 0 60432 900.00000 0 -15181188.190 12363738.647 16363856.697 10 0 60432 1800.00000 0 -14163455.220 10472540.817 18465173.645 10 0 60432 2700.00000 0 -13199136.445 8292731.819 20208328.861 10 0 60432 3600.00000 0 -12337988.798 5867614.456 21559641.634 10 0 60432 4500.00000 0 -11621859.805 3250185.331 22493033.059 10 0 60432 5400.00000 0 -11082911.901 501178.859 22990518.367 10 0 60432 6300.00000 0 -10742271.896 -2313207.388 23042544.084 10 0 60432 7200.00000 0 -10609160.962 -5123812.695 22648164.633 10 0 60432 8100.00000 0 -10680540.545 -7861136.336 21815055.703 10 0 60432 9000.00000 0 -10941288.243 -10457976.716 20559364.521 10 0 60432 9900.00000 0 -11364895.918 -12851978.813 18905399.881 10 0 60432 10800.00000 0 -11914660.783 -14987985.935 16885167.478 10 0 60432 11700.00000 0 -12545319.873 -16820099.723 14537758.784 10 0 60432 12600.00000 0 -13205059.899 -18313364.022 11908604.250 10 0 60432 13500.00000 0 -13837818.786 -19445003.509 9048604.203 10 0 60432 14400.00000 0 -14385782.838 -20205166.088 6013153.098 10 0 60432 15300.00000 0 -14791974.940 -20597138.311 2861075.063 10 0 60432 16200.00000 0 -15002825.058 -20637024.919 -346509.432 10 0 60432 17100.00000 0 -14970614.517 -20352905.759 -3547364.366 10 0 60432 18000.00000 0 -14655690.451 -19783505.235 -6679343.720 10 0 60432 18900.00000 0 -14028356.024 -18976429.958 -9681598.375 10 0 60432 19800.00000 0 -13070355.331 -17986048.530 -12495760.708 10 0 60432 20700.00000 0 -11775888.693 -16871102.617 -15067083.417 10 0 60432 21600.00000 0 -10152113.649 -15692149.984 -17345509.967 10 0 60432 22500.00000 0 -8219108.496 -14508947.386 -19286655.294 10 0 60432 23400.00000 0 -6009297.849 -13377883.866 -20852677.157 10 0 60432 24300.00000 0 -3566362.351 -12349573.030 -22013020.667 10 0 60432 25200.00000 0 -943676.390 -11466706.108 -22745021.067 10 0 60432 26100.00000 0 1797662.305 -10762256.748 -23034352.573 10 0 60432 27000.00000 0 4591130.090 -10258113.543 -22875314.141 10 0 60432 27900.00000 0 7367306.852 -9964198.236 -22270946.168 10 0 60432 28800.00000 0 10056532.483 -9878106.985 -21232975.482 10 0 60432 29700.00000 0 12591579.912 -9985289.877 -19781589.312 10 0 60432 30600.00000 0 14910233.313 -10259760.966 -17945042.337 10 0 60432 31500.00000 0 16957663.875 -10665308.566 -15759104.297 10 0 60432 32400.00000 0 18688503.958 -11157154.087 -13266358.911 10 0 60432 33300.00000 0 20068533.093 -11683988.568 -10515367.930 10 0 60432 34200.00000 0 21075905.628 -12190299.787 -7559717.105 10 0 60432 35100.00000 0 21701869.291 -12618890.446 -4456963.287 10 0 60432 36000.00000 0 21950945.581 -12913479.685 -1267504.060 10 0 60432 36900.00000 0 21840565.760 -13021276.727 1946607.033 10 0 60432 37800.00000 0 21400179.437 -12895416.763 5122875.579 10 0 60432 38700.00000 0 20669875.001 -12497155.283 8199587.088 10 0 60432 39600.00000 0 19698571.824 -11797727.586 11117008.949 10 0 60432 40500.00000 0 18541861.915 -10779794.700 13818549.730 10 0 60432 41400.00000 0 17259593.219 -9438414.692 16251853.249 10 0 60432 42300.00000 0 15913297.076 -7781498.572 18369806.461 10 0 60432 43200.00000 0 14563568.314 -5829731.746 20131442.360 10 0 60432 44100.00000 0 13267507.791 -3615964.282 21502721.458 10 0 60432 45000.00000 0 12076333.996 -1184095.338 22457177.961 10 0 60432 45900.00000 0 11033262.668 1412502.197 22976419.504 10 0 60432 46800.00000 0 10171741.865 4112952.027 23050472.081 10 0 60432 47700.00000 0 9514114.854 6851158.903 22677964.618 10 0 60432 48600.00000 0 9070765.318 9558313.730 21866150.374 10 0 60432 49500.00000 0 8839779.428 12165516.980 20630765.223 10 0 60432 50400.00000 0 8807137.997 14606413.227 18995725.466 10 0 60432 51300.00000 0 8947430.153 16819729.155 16992670.664 10 0 60432 52200.00000 0 9225058.448 18751611.190 14660359.513 10 0 60432 53100.00000 0 9595885.047 20357666.825 12043929.489 10 0 60432 54000.00000 0 10009250.240 21604625.649 9194033.436 10 0 60432 54900.00000 0 10410278.931 22471551.471 6165868.698 10 0 60432 55800.00000 0 10742378.430 22950555.132 3018116.588 10 0 60432 56700.00000 0 10949822.620 23046978.226 -188188.034 10 0 60432 57600.00000 0 10980313.459 22779039.707 -3390835.751 10 0 60432 58500.00000 0 10787411.371 22176959.834 -6527647.478 10 0 60432 59400.00000 0 10332731.146 21281597.754 -9537681.874 10 0 60432 60300.00000 0 9587809.470 20142659.547 -12362421.631 10 0 60432 61200.00000 0 8535563.753 18816551.740 -14946915.135 10 0 60432 62100.00000 0 7171278.882 17363970.391 -17240850.835 10 0 60432 63000.00000 0 5503078.324 15847327.073 -19199542.900 10 0 60432 63900.00000 0 3551857.622 14328120.160 -20784808.401 10 0 60432 64800.00000 0 1350680.983 12864362.147 -21965718.468 10 0 60432 65700.00000 0 -1056335.735 11508171.438 -22719208.355 10 0 60432 66600.00000 0 -3615610.555 10303630.157 -23030534.048 10 0 60432 67500.00000 0 -6266084.612 9284998.262 -22893566.164 10 0 60432 68400.00000 0 -8941533.059 8475359.188 -22310915.011 10 0 60432 69300.00000 0 -11573101.917 7885754.051 -21293883.966 10 0 60432 70200.00000 0 -14091965.413 7514840.641 -19862251.764 10 0 60432 71100.00000 0 -16431993.084 7349091.244 -18043887.605 10 0 60432 72000.00000 0 -18532315.200 7363520.396 -15874206.416 10 0 60432 72900.00000 0 -20339679.248 7522911.058 -13395474.828 10 0 60432 73800.00000 0 -21810498.822 7783486.476 -10655981.572 10 0 60432 74700.00000 0 -22912509.222 8094955.848 -7709088.875 10 0 60432 75600.00000 0 -23625960.658 8402846.029 -4612183.992 10 0 60432 76500.00000 0 -23944299.675 8651019.176 -1425552.145 10 0 60432 77400.00000 0 -23874311.091 8784268.471 1788806.149 10 0 60432 78300.00000 0 -23435715.820 8750880.796 4968389.281 10 0 60432 79200.00000 0 -22660242.980 8505056.908 8051415.688 10 0 60432 80100.00000 0 -21590216.955 8009086.000 10978027.360 10 0 60432 81000.00000 0 -20276720.416 7235182.306 13691451.829 10 0 60432 81900.00000 0 -18777411.901 6166906.014 16139099.990 10 0 60432 82800.00000 0 -17154090.662 4800108.638 18273578.700 10 0 60432 83700.00000 0 -15470111.521 3143363.107 20053599.246 10 0 60432 84600.00000 0 -13787758.143 1217860.592 21444765.125 10 0 60432 85500.00000 0 -12165684.216 -943221.751 22420225.126 10 0 60433 0.00000 0 -10656528.714 -3295855.816 22961180.423 10 0 60433 900.00000 0 -9304802.758 -5786754.999 23057237.403 10 0 60433 1800.00000 0 -8145136.754 -8355355.537 22706599.892 10 0 60433 2700.00000 0 -7200956.645 -10936109.794 21916098.841 10 0 60433 3600.00000 0 -6483645.022 -13460994.640 20701058.506 10 0 60433 4500.00000 0 -5992220.006 -15862133.556 19085002.080 10 0 60433 5400.00000 0 -5713544.414 -18074425.010 17099201.989 10 0 60433 6300.00000 0 -5623055.855 -20038069.392 14782082.802 10 0 60433 7200.00000 0 -5685986.865 -21700890.687 12178487.324 10 0 60433 8100.00000 0 -5859023.921 -23020357.172 9338818.931 10 0 60433 9000.00000 0 -6092335.851 -23965217.516 6318075.606 10 0 60433 9900.00000 0 -6331886.574 -24516684.144 3174793.404 10 0 60433 10800.00000 0 -6521934.986 -24669114.286 -30081.048 10 0 60433 11700.00000 0 -6607616.582 -24430159.769 -3234367.693 10 0 60433 12600.00000 0 -6537497.636 -23820378.688 -6375857.250 10 0 60433 13500.00000 0 -6265993.450 -22872324.540 -9393519.127 10 0 60433 14400.00000 0 -5755547.612 -21629150.389 -12228689.351 10 0 60433 15300.00000 0 -4978478.871 -20142786.079 -14826215.026 10 0 60433 16200.00000 0 -3918416.066 -18471764.617 -17135532.546 10 0 60433 17100.00000 0 -2571258.689 -16678788.696 -19111658.105 10 0 60433 18000.00000 0 -945620.587 -14828139.467 -20716070.625 10 0 60433 18900.00000 0 937263.978 -12983036.298 -21917469.456 10 0 60433 19800.00000 0 3044169.998 -11203058.464 -22692391.638 10 0 60433 20700.00000 0 5331022.602 -9541737.060 -23025676.248 10 0 60433 21600.00000 0 7744502.988 -8044418.306 -22910766.421 10 0 60433 22500.00000 0 10224053.551 -6746487.899 -22349842.751 10 0 60433 23400.00000 0 12704199.290 -5672030.875 -21353785.091 10 0 60433 24300.00000 0 15117089.097 -4832982.978 -19941963.164 10 0 60433 25200.00000 0 17395150.992 -4228808.710 -18141859.707 10 0 60433 26100.00000 0 19473750.277 -3846718.927 -15988533.377 10 0 60433 27000.00000 0 21293739.254 -3662417.831 -13523931.760 10 0 60433 27900.00000 0 22803791.552 -3641346.722 -10796068.098 10 0 60433 28800.00000 0 23962423.028 -3740370.614 -7858078.140 10 0 60433 29700.00000 0 24739614.496 -3909834.936 -4767176.163 10 0 60433 30600.00000 0 25117968.400 -4095903.766 -1583531.309 10 0 60433 31500.00000 0 25093351.394 -4243079.072 1630912.833 10 0 60433 32400.00000 0 24674996.699 -4296792.885 4813651.399 10 0 60433 33300.00000 0 23885063.110 -4205961.428 7902839.577 10 0 60433 34200.00000 0 22757670.531 -3925392.180 10838497.531 10 0 60433 35100.00000 0 21337454.008 -3417941.437 13563674.974 10 0 60433 36000.00000 0 19677698.283 -2656330.886 16025552.675 10 0 60433 36900.00000 0 17838132.250 -1624546.495 18176459.737 10 0 60433 37800.00000 0 15882476.429 -318760.859 19974787.625 10 0 60433 38700.00000 0 13875846.326 1252259.674 21385784.257 10 0 60433 39600.00000 0 11882119.960 3067280.128 22382213.999 10 0 60433 40500.00000 0 9961378.658 5093249.247 22944872.181 10 0 60433 41400.00000 0 8167526.614 7286452.287 23062945.513 10 0 60433 42300.00000 0 6546186.898 9594116.897 22734212.545 10 0 60433 43200.00000 0 5132959.842 11956406.347 21965081.158 10 0 60433 44100.00000 0 3952114.590 14308718.495 20770462.799 10 0 60433 45000.00000 0 3015766.781 16584196.382 19173485.936 10 0 60433 45900.00000 0 2323575.245 18716347.636 17205053.865 10 0 60433 46800.00000 0 1862969.366 20641665.223 14903254.692 10 0 60433 47700.00000 0 1609896.927 22302141.701 12312633.929 10 0 60433 48600.00000 0 1530060.719 23647573.227 9483342.619 10 0 60433 49500.00000 0 1580591.983 24637557.776 6470176.346 10 0 60433 50400.00000 0 1712090.400 25243104.335 3331522.728 10 0 60433 51300.00000 0 1870944.883 25447785.557 128236.937 10 0 60433 52200.00000 0 2001837.402 25248385.114 -3077533.521 10 0 60433 53100.00000 0 2050324.004 24655011.849 -6223552.248 10 0 60433 54000.00000 0 1965383.670 23690675.010 -9248702.263 10 0 60433 54900.00000 0 1701826.534 22390337.453 -12094175.520 10 0 60433 55800.00000 0 1222458.689 20799485.627 -14704620.090 10 0 60433 56700.00000 0 499910.735 18972275.600 -17029222.221 10 0 60433 57600.00000 0 -481948.775 16969332.278 -19022701.694 10 0 60433 58500.00000 0 -1727076.455 14855293.739 -20646200.524 10 0 60433 59400.00000 0 -3226835.205 12696203.368 -21868047.233 10 0 60433 60300.00000 0 -4960112.960 10556858.956 -22664381.315 10 0 60433 61200.00000 0 -6893975.961 8498229.823 -23019625.325 10 0 60433 62100.00000 0 -8984830.828 6575050.096 -22926794.996 10 0 60433 63000.00000 0 -11180048.211 4833688.906 -22387640.937 10 0 60433 63900.00000 0 -13419981.059 3310386.566 -21412618.831 10 0 60433 64800.00000 0 -15640293.791 2029930.350 -20020688.316 10 0 60433 65700.00000 0 -17774505.264 1004824.858 -18238944.205 10 0 60433 66600.00000 0 -19756639.113 234991.093 -16102087.031 10 0 60433 67500.00000 0 -21523870.277 -291994.158 -13651743.187 10 0 60433 68400.00000 0 -23019056.468 -600129.956 -10935648.030 10 0 60433 69300.00000 0 -24193047.981 -723727.731 -8006708.286 10 0 60433 70200.00000 0 -25006678.607 -705707.662 -4921962.611 10 0 60433 71100.00000 0 -25432353.879 -595528.670 -1741461.394 10 0 60433 72000.00000 0 -25455170.037 -446841.280 1472911.390 10 0 60433 72900.00000 0 -25073517.130 -314964.371 4658650.281 10 0 60433 73800.00000 0 -24299141.639 -254294.039 7753849.851 10 0 60433 74700.00000 0 -23156667.028 -315755.412 10698410.998 10 0 60433 75600.00000 0 -21682593.510 -544406.044 13435208.077 10 0 60433 76500.00000 0 -19923820.172 -977292.653 15911194.034 10 0 60433 77400.00000 0 -17935752.489 -1641651.852 18078422.314 10 0 60433 78300.00000 0 -15780075.189 -2553530.614 19894966.389 10 0 60433 79200.00000 0 -13522283.935 -3716884.377 21325720.108 10 0 60433 80100.00000 0 -11229078.751 -5123190.430 22343064.582 10 0 60433 81000.00000 0 -8965727.246 -6751592.768 22927390.085 10 0 60433 81900.00000 0 -6793506.313 -8569572.556 23067464.210 10 0 60433 82800.00000 0 -4767327.350 -10534116.649 22760640.293 10 0 60433 83700.00000 0 -2933641.987 -12593336.287 22012902.971 10 0 60433 84600.00000 0 -1328713.613 -14688469.598 20838750.418 10 0 60433 85500.00000 0 22675.166 -16756185.822 19260915.630 10 0 60434 0.00000 0 1108026.853 -18731096.603 17309931.940 10 0 60434 900.00000 0 1927413.512 -20548372.188 15023549.337 10 0 60434 1800.00000 0 2493229.085 -22146352.167 12446014.608 10 0 60434 2700.00000 0 2829422.504 -23469046.378 9627224.610 10 0 60434 3600.00000 0 2970242.593 -24468419.531 6621770.426 10 0 60434 4500.00000 0 2958548.204 -25106365.364 3487888.932 10 0 60434 5400.00000 0 2843754.511 -25356287.337 286341.377 10 0 60434 6300.00000 0 2679501.965 -25204219.079 -2920759.891 10 0 60434 7200.00000 0 2521146.289 -24649436.710 -6071154.060 10 0 60434 8100.00000 0 2423175.737 -23704536.252 -9103640.533 10 0 60434 9000.00000 0 2436665.258 -22394971.659 -11959270.002 10 0 60434 9900.00000 0 2606875.943 -20758071.645 -14582494.321 10 0 60434 10800.00000 0 2971102.305 -18841575.442 -16922252.335 10 0 60434 11700.00000 0 3556859.681 -16701747.931 -18932970.016 10 0 60434 12600.00000 0 4380489.858 -14401152.402 -20575454.863 10 0 60434 13500.00000 0 5446245.466 -12006173.680 -21817666.645 10 0 60434 14400.00000 0 6745893.505 -9584394.911 -22635349.042 10 0 60434 15300.00000 0 8258856.481 -7201937.547 -23012509.421 10 0 60434 16200.00000 0 9952886.844 -4920875.629 -22941737.027 10 0 60434 17100.00000 0 11785247.898 -2796832.313 -22424353.010 10 0 60434 18000.00000 0 13704352.747 -876859.035 -21470388.995 10 0 60434 18900.00000 0 15651793.400 802314.322 -20098394.268 10 0 60434 19800.00000 0 17564675.387 2215585.451 -18335075.039 10 0 60434 20700.00000 0 19378160.136 3350287.806 -16214772.625 10 0 60434 21600.00000 0 21028108.229 4206468.027 -13778790.666 10 0 60434 22500.00000 0 22453712.246 4796622.176 -11074584.606 10 0 60434 23400.00000 0 23600008.052 5144903.382 -8154829.642 10 0 60434 24300.00000 0 24420158.476 5285835.992 -5076385.880 10 0 60434 25200.00000 0 24877412.959 5262592.352 -1899181.658 10 0 60434 26100.00000 0 24946660.473 5124906.891 1314962.189 10 0 60434 27000.00000 0 24615510.487 4926717.569 4503543.251 10 0 60434 27900.00000 0 23884856.821 4723636.094 7604599.090 10 0 60434 28800.00000 0 22768901.340 4570355.331 10557914.801 10 0 60434 29700.00000 0 21294637.311 4518104.606 13306192.591 10 0 60434 30600.00000 0 19500815.035 4612261.091 15796160.486 10 0 60434 31500.00000 0 17436434.005 4890218.409 17979598.823 10 0 60434 32400.00000 0 15158825.388 5379602.307 19814265.271 10 0 60434 33300.00000 0 12731405.327 6096908.236 21264701.439 10 0 60434 34200.00000 0 10221192.780 7046617.768 22302906.640 10 0 60434 35100.00000 0 7696194.790 8220830.613 22908867.171 10 0 60434 36000.00000 0 5222766.994 9599427.506 23070932.181 10 0 60434 36900.00000 0 2863057.734 11150757.304 22786030.050 10 0 60434 37800.00000 0 672640.271 12832820.007 22059721.956 10 0 60434 38700.00000 0 -1301570.444 14594897.151 20906092.120 10 0 60434 39600.00000 0 -3023031.695 16379562.590 19347476.905 10 0 60434 40500.00000 0 -4466848.183 18124991.063 17414037.685 10 0 60434 41400.00000 0 -5620556.897 19767469.573 15143185.006 10 0 60434 42300.00000 0 -6484390.177 21244007.970 12578864.234 10 0 60434 43200.00000 0 -7071006.884 22494940.760 9770715.356 10 0 60434 44100.00000 0 -7404703.478 23466412.060 6773122.045 10 0 60434 45000.00000 0 -7520138.366 24112640.006 3644167.350 10 0 60434 45900.00000 0 -7460623.203 24397865.642 444515.398 10 0 60434 46800.00000 0 -7276053.033 24297903.996 -2763759.860 10 0 60434 47700.00000 0 -7020562.540 23801231.346 -5918376.406 10 0 60434 48600.00000 0 -6750007.414 22909561.808 -8958053.126 10 0 60434 49500.00000 0 -6519377.529 21637887.613 -11823702.354 10 0 60434 50400.00000 0 -6380251.758 20013979.947 -14459582.360 10 0 60434 51300.00000 0 -6378402.829 18077369.813 -16814386.913 10 0 60434 52200.00000 0 -6551654.419 15877850.352 -18842250.175 10 0 60434 53100.00000 0 -6928082.320 13473562.266 -20503646.777 10 0 60434 54000.00000 0 -7524636.964 10928741.585 -21766169.066 10 0 60434 54900.00000 0 -8346246.968 8311223.298 -22605165.901 10 0 60434 55800.00000 0 -9385442.988 5689804.763 -23004230.122 10 0 60434 56700.00000 0 -10622519.191 3131578.698 -22955524.804 10 0 60434 57600.00000 0 -12026226.900 699346.908 -22459941.570 10 0 60434 58500.00000 0 -13554972.331 -1550777.458 -21527087.509 10 0 60434 59400.00000 0 -15158468.923 -3571479.196 -20175100.652 10 0 60434 60300.00000 0 -16779775.348 -5325974.169 -18430297.272 10 0 60434 61200.00000 0 -18357633.709 -6789294.284 -16326657.733 10 0 60434 62100.00000 0 -19829009.519 -7949071.362 -13905160.833 10 0 60434 63000.00000 0 -21131726.271 -8805788.152 -11212979.735 10 0 60434 63900.00000 0 -22207083.132 -9372487.289 -8302555.518 10 0 60434 64800.00000 0 -23002344.944 -9673952.129 -5230566.998 10 0 60434 65700.00000 0 -23472999.047 -9745395.803 -2056817.641 10 0 60434 66600.00000 0 -23584683.338 -9630715.756 1156937.753 10 0 60434 67500.00000 0 -23314704.099 -9380389.441 4348202.727 10 0 60434 68400.00000 0 -22653079.652 -9049101.931 7454960.721 10 0 60434 69300.00000 0 -21603066.201 -8693207.324 10416883.854 10 0 60434 70200.00000 0 -20181144.229 -8368132.524 13176504.889 10 0 60434 71100.00000 0 -18416466.679 -8125833.907 15680329.448 10 0 60434 72000.00000 0 -16349792.740 -8012414.687 17879867.020 10 0 60434 72900.00000 0 -14031952.428 -8066003.462 19732561.410 10 0 60434 73800.00000 0 -11521906.461 -8314982.985 21202603.552 10 0 60434 74700.00000 0 -8884482.355 -8776643.138 22261612.141 10 0 60434 75600.00000 0 -6187880.598 -9456314.110 22889170.269 10 0 60434 76500.00000 0 -3501053.714 -10347015.628 23073209.055 10 0 60434 77400.00000 0 -891065.869 -11429636.675 22810231.983 10 0 60434 78300.00000 0 1579459.018 -12673638.174 22105376.547 10 0 60434 79200.00000 0 3854696.571 -14038249.664 20972312.517 10 0 60434 80100.00000 0 5887692.609 -15474110.647 19432978.886 10 0 60434 81000.00000 0 7642061.000 -16925289.017 17517164.269 10 0 60434 81900.00000 0 9093239.765 -18331593.352 15261938.174 10 0 60434 82800.00000 0 10229254.501 -19631083.555 12710943.165 10 0 60434 83700.00000 0 11050958.326 -20762675.842 9913560.537 10 0 60434 84600.00000 0 11571739.014 -21668733.783 6923964.426 10 0 60434 85500.00000 0 11816705.998 -22297537.239 3800081.664 10 0 60435 0.00000 0 11821391.509 -22605525.599 602476.928 10 0 60435 900.00000 0 11630020.426 -22559220.794 -2606817.579 10 0 60435 1800.00000 0 11293421.701 -22136748.116 -5765501.213 10 0 60435 2700.00000 0 10866669.401 -21328890.201 -8812215.246 10 0 60435 3600.00000 0 10406553.001 -20139627.917 -11687736.527 10 0 60435 4500.00000 0 9968984.147 -18586143.967 -14336132.552 10 0 60435 5400.00000 0 9606449.914 -16698287.320 -16705854.699 10 0 60435 6300.00000 0 9365620.930 -14517519.259 -18750747.813 10 0 60435 7200.00000 0 9285216.320 -12095383.779 -20430955.908 10 0 60435 8100.00000 0 9394216.686 -9491565.089 -21713705.848 10 0 60435 9000.00000 0 9710501.749 -6771612.436 -22573953.253 10 0 60435 9900.00000 0 10239971.312 -4004426.562 -22994877.632 10 0 60435 10800.00000 0 10976187.788 -1259612.204 -22968216.682 10 0 60435 11700.00000 0 11900556.460 1395193.293 -22494432.900 10 0 60435 12600.00000 0 12983036.814 3896904.030 -21582708.875 10 0 60435 13500.00000 0 14183355.698 6189374.688 -20250771.044 10 0 60435 14400.00000 0 15452671.688 8225495.332 -18524545.058 10 0 60435 15300.00000 0 16735620.745 9968904.734 -16437649.272 10 0 60435 16200.00000 0 17972656.835 11395251.202 -14030736.211 10 0 60435 17100.00000 0 19102588.527 12492949.020 -11350694.912 10 0 60435 18000.00000 0 20065203.992 13263399.900 -8449730.096 10 0 60435 18900.00000 0 20803873.001 13720671.658 -5384336.659 10 0 60435 19800.00000 0 21268015.378 13890649.342 -2214190.230 10 0 60435 20700.00000 0 21415331.088 13809696.477 999023.623 10 0 60435 21600.00000 0 21213697.331 13522884.876 4192817.731 10 0 60435 22500.00000 0 20642652.370 13081869.664 7305124.769 10 0 60435 23400.00000 0 19694403.490 12542500.999 10275507.135 10 0 60435 24300.00000 0 18374316.858 11962274.796 13046331.232 10 0 60435 25200.00000 0 16700869.026 11397731.137 15563883.115 10 0 60435 26100.00000 0 14705062.575 10901910.700 17779403.987 10 0 60435 27000.00000 0 12429330.772 10521976.611 19650026.052 10 0 60435 27900.00000 0 9925977.269 10297101.513 21139591.523 10 0 60435 28800.00000 0 7255215.940 10256708.158 22219340.105 10 0 60435 29700.00000 0 4482892.120 10419136.615 22868452.987 10 0 60435 30600.00000 0 1677979.193 10790793.193 23074444.175 10 0 60435 31500.00000 0 -1090046.608 11365816.050 22833392.780 10 0 60435 32400.00000 0 -3753845.812 12126271.031 22150012.690 10 0 60435 33300.00000 0 -6250761.980 13042869.428 21037558.830 10 0 60435 34200.00000 0 -8525170.855 14076177.859 19517571.941 10 0 60435 35100.00000 0 -10530536.770 15178270.251 17619466.531 10 0 60435 36000.00000 0 -12231092.560 16294753.617 15379969.274 10 0 60435 36900.00000 0 -13603074.570 17367083.790 12842417.774 10 0 60435 37800.00000 0 -14635462.387 18335075.056 10055932.160 10 0 60435 38700.00000 0 -15330193.252 19139499.251 7074474.324 10 0 60435 39600.00000 0 -15701842.592 19724665.773 3955812.006 10 0 60435 40500.00000 0 -15776784.282 20040874.256 760406.866 10 0 60435 41400.00000 0 -15591865.851 20046636.506 -2449752.553 10 0 60435 42300.00000 0 -15192654.277 19710573.498 -5612350.642 10 0 60435 43200.00000 0 -14631326.099 19012906.443 -8665954.112 10 0 60435 44100.00000 0 -13964290.797 17946477.697 -11551207.294 10 0 60435 45000.00000 0 -13249647.809 16517256.814 -14211989.704 10 0 60435 45900.00000 0 -12544584.821 14744308.610 -16596512.877 10 0 60435 46800.00000 0 -11902827.638 12659222.662 -18658334.607 10 0 60435 47700.00000 0 -11372249.919 10305026.386 -20357270.223 10 0 60435 48600.00000 0 -10992744.449 7734625.617 -21660182.682 10 0 60435 49500.00000 0 -10794446.608 5008836.531 -22541635.587 10 0 60435 50400.00000 0 -10796385.870 2194090.098 -22984395.965 10 0 60435 51300.00000 0 -11005623.066 -640095.914 -22979776.606 10 0 60435 52200.00000 0 -11416910.564 -3423772.526 -22527810.960 10 0 60435 53100.00000 0 -12012890.376 -6089232.289 -21637256.784 10 0 60435 54000.00000 0 -12764822.312 -8573588.004 -20325428.183 10 0 60435 54900.00000 0 -13633811.783 -10821150.074 -18617859.031 10 0 60435 55800.00000 0 -14572485.493 -12785503.465 -16547804.146 10 0 60435 56700.00000 0 -15527044.122 -14431197.928 -14155587.905 10 0 60435 57600.00000 0 -16439604.916 -15734981.377 -11487813.066 10 0 60435 58500.00000 0 -17250734.587 -16686525.636 -8596445.616 10 0 60435 59400.00000 0 -17902064.730 -17288615.294 -5537793.987 10 0 60435 60300.00000 0 -18338878.386 -17556793.237 -2371403.309 10 0 60435 61200.00000 0 -18512557.591 -17518479.470 841112.833 10 0 60435 62100.00000 0 -18382787.783 -17211602.243 4037279.380 10 0 60435 63000.00000 0 -17919425.426 -16682801.120 7154981.087 10 0 60435 63900.00000 0 -17103949.733 -15985279.597 10133673.479 10 0 60435 64800.00000 0 -15930437.216 -15176399.446 12915559.376 10 0 60435 65700.00000 0 -14406018.141 -14315119.489 15446707.913 10 0 60435 66600.00000 0 -12550795.961 -13459387.548 17678094.435 10 0 60435 67500.00000 0 -10397233.327 -12663595.707 19566541.688 10 0 60435 68400.00000 0 -7989030.519 -11976205.775 21075544.968 10 0 60435 69300.00000 0 -5379543.064 -11437644.149 22175966.409 10 0 60435 70200.00000 0 -2629804.136 -11078553.549 22846586.331 10 0 60435 71100.00000 0 193766.738 -10918473.872 23074502.293 10 0 60435 72000.00000 0 3021874.522 -10965006.383 22855369.354 10 0 60435 72900.00000 0 5784976.289 -11213495.327 22193477.810 10 0 60435 73800.00000 0 8415918.317 -11647239.649 21101667.483 10 0 60435 74700.00000 0 10852475.047 -12238225.689 19601080.355 10 0 60435 75600.00000 0 13039686.406 -12948350.255 17720756.059 10 0 60435 76500.00000 0 14931898.154 -13731083.283 15497077.396 10 0 60435 77400.00000 0 16494421.852 -14533501.066 12973075.659 10 0 60435 78300.00000 0 17704746.524 -15298605.549 10197608.115 10 0 60435 79200.00000 0 18553252.307 -15967833.077 7224422.358 10 0 60435 80100.00000 0 19043396.697 -16483647.735 4111124.621 10 0 60435 81000.00000 0 19191365.806 -16792110.486 918071.110 10 0 60435 81900.00000 0 19025205.175 -16845315.842 -2292796.830 10 0 60435 82800.00000 0 18583466.467 -16603592.894 -5459151.443 10 0 60435 83700.00000 0 17913426.711 -16037376.986 -8519488.032 10 0 60435 84600.00000 0 17068954.883 -15128671.771 -11414321.514 10 0 60435 85500.00000 0 16108115.636 -13872038.388 -14087346.407 99